Weather History for KELZ - July, 2012

Change the Weather History Date:

Tuesday, July 24, 2012

  Actual Average (KBFD) Record (KBFD)
Temperature  
Mean Temperature 74 °F 65 °F  
Max Temperature 84 °F 77 °F 87 °F (2001)
Min Temperature 63 °F 54 °F 44 °F (1993)
Degree Days  
Heating Degree Days 0 0  
Month to date heating degree days 1  
Since 1 June heating degree days 146  
Since 1 July heating degree days 1  
Cooling Degree Days 8 2  
Month to date cooling degree days 56  
Year to date cooling degree days 106  
Since 1 June cooling degree days 96  
Growing Degree Days 24 (Base 50)    
Moisture  
Dew Point 61 °F    
Average Humidity 64    
Maximum Humidity 84    
Minimum Humidity 49    
Precipitation  
Precipitation 0.01 in 0.14 in 1.74 in (1967)
Month to date precipitation 3.25  
Year to date precipitation 24.90  
Sea Level Pressure  
Sea Level Pressure 29.84 in    
Wind  
Wind Speed 11 mph (NW)    
Max Wind Speed 18 mph    
Max Gust Speed 38 mph    
Visibility 10 miles    
Events Rain    
T = Trace of Precipitation, MM = Missing Value Source: NWS Daily Summary

Daily Weather History Graph

Daily Weather History Graph

Search for Another Location

Airport or City:

Trip Planner

Search our weather history database for the weather conditions in past years. The results will help you decide how hot, cold, wet, or windy it might be!

Date:

Astronomy

Jul. 24, 2012 Rise Set
Actual Time 5:57 AM EDT 8:38 PM EDT
Civil Twilight 5:25 AM EDT 9:10 PM EDT
Nautical Twilight 4:44 AM EDT 9:51 PM EDT
Astronomical Twilight 3:58 AM EDT 10:37 PM EDT
Moon 12:00 PM EDT (7/24) 11:17 PM EDT (7/24)
Length of Visible Light 15h 45m
Length of Day
14h 40m
Waxing Crescent, 31% of the Moon is Illuminated
Jul 24
Waxing Crescent
Jul 26
First Quarter
Aug 1
Full
Aug 9
Last Quarter
Aug 17
New

Hourly Weather History & Observations

Time (EDT) Temp. Heat Index Dew Point Humidity Pressure Visibility Wind Dir Wind Speed Gust Speed Precip Events Conditions
12:56 AM 75.0 °F - 64.0 °F 69% 29.81 in 10.0 mi SW 12.7 mph 21.9 mph N/A   Clear
1:56 AM 75.0 °F - 64.9 °F 71% 29.80 in 10.0 mi West 11.5 mph 23.0 mph N/A   Scattered Clouds
2:42 AM 73.4 °F - 64.4 °F 73% 29.87 in 10.0 mi WNW 9.2 mph - 0.00 in Rain Light Rain
2:56 AM 73.0 °F - 64.9 °F 76% 29.82 in 10.0 mi West 9.2 mph - 0.00 in   Overcast
3:56 AM 73.0 °F - 66.0 °F 79% 29.81 in 10.0 mi West 6.9 mph - N/A   Partly Cloudy
4:56 AM 71.1 °F - 66.0 °F 84% 29.81 in 10.0 mi West 6.9 mph - N/A   Scattered Clouds
5:56 AM 72.0 °F - 66.0 °F 81% 29.81 in 10.0 mi West 6.9 mph - N/A   Partly Cloudy
6:56 AM 72.0 °F - 66.0 °F 81% 29.81 in 10.0 mi West 10.4 mph - N/A   Clear
7:56 AM 73.9 °F - 64.0 °F 71% 29.81 in 10.0 mi WNW 10.4 mph 18.4 mph N/A   Clear
8:56 AM 75.9 °F - 62.1 °F 62% 29.81 in 10.0 mi WNW 10.4 mph 21.9 mph N/A   Clear
9:56 AM 77.0 °F - 61.0 °F 58% 29.81 in 10.0 mi NW 16.1 mph - N/A   Clear
10:45 AM 78.8 °F - 62.6 °F 57% 29.86 in 10.0 mi WNW 16.1 mph 23.0 mph N/A   Mostly Cloudy
10:56 AM 77.0 °F - 61.0 °F 58% 29.81 in 10.0 mi WNW 12.7 mph 25.3 mph N/A   Mostly Cloudy
11:12 AM 78.8 °F - 62.6 °F 57% 29.87 in 10.0 mi NW 12.7 mph 26.5 mph N/A   Mostly Cloudy
11:52 AM 78.8 °F - 62.6 °F 57% 29.87 in 10.0 mi NW 13.8 mph 24.2 mph N/A   Mostly Cloudy
11:56 AM 81.0 °F 82.2 °F 63.0 °F 54% 29.82 in 10.0 mi WNW 16.1 mph 24.2 mph N/A   Mostly Cloudy
12:56 PM 78.1 °F - 62.1 °F 58% 29.82 in 10.0 mi NNW 18.4 mph 23.0 mph N/A   Scattered Clouds
1:56 PM 81.0 °F 81.6 °F 60.1 °F 49% 29.82 in 10.0 mi NW 15.0 mph 23.0 mph N/A   Partly Cloudy
2:56 PM 81.0 °F 81.6 °F 60.1 °F 49% 29.80 in 10.0 mi NW 15.0 mph 25.3 mph N/A   Scattered Clouds
3:56 PM 75.9 °F - 60.1 °F 58% 29.81 in 10.0 mi NW 15.0 mph 23.0 mph N/A   Overcast
4:43 PM 71.6 °F - 60.8 °F 69% 29.85 in 1.8 mi NNW 9.2 mph 38.0 mph 0.11 in Rain Heavy Rain
4:51 PM 71.6 °F - 62.6 °F 73% 29.85 in 3.0 mi NNW 13.8 mph 20.7 mph 0.11 in Rain Light Rain
5:56 PM 73.9 °F - 61.0 °F 64% 29.81 in 10.0 mi NNW 10.4 mph 20.7 mph N/A   Scattered Clouds
6:56 PM 73.0 °F - 57.0 °F 57% 29.84 in 10.0 mi North 9.2 mph 16.1 mph 0.01 in   Mostly Cloudy
7:56 PM 70.0 °F - 52.0 °F 53% 29.87 in 10.0 mi NNW 6.9 mph - N/A   Clear
8:56 PM 66.9 °F - 52.0 °F 59% 29.88 in 10.0 mi North 8.1 mph - N/A   Clear
9:56 PM 66.0 °F - 50.0 °F 56% 29.91 in 10.0 mi Variable 5.8 mph - N/A   Clear
10:56 PM 63.0 °F - 50.0 °F 63% 29.93 in 10.0 mi NNW 3.5 mph - N/A   Clear